SITRO-AIS 6 (CHIRKIN)

Last updated on Thu Nov 21 2024 00:03:40 GMT+0000 (Coordinated Universal Time)

1 57192U 23091AC 24325.59526460 .00014224 00000+0 79448-3 0 9999 2 57192 97.5906 16.7758 0014831 308.7710 51.2196 15.13536373 77116
UTC large
Height (km)
Speed (km/s)
/
Latitude / Longitude
Inclination (degrees)
Orbital Period (minutes)
Azimuth
Elevation
Range (km)
Doppler Factor

Next 0 passes for location: London (51.5072 / 0.1276)

Sorry there are no passes over London.